Date String (YYYY-MM-DD hh:mm:ss) UTC,Instrument flags,absolute air pressure of the measurement (hPa),sample flow rate (lpm),inlet stack bypass flow (lpm),air temperature of the measurement (°C),ambient temperature measured by the external sensor (°C),aerosol sample conditioner tube jacket temperature (°C),OPC LED temperature (°C),internal box temperature (°C),relative humidity of the measurement (%),span deviation,mass concentration of particles derived from Lorenz-Mie calculation of OPC scattering (μg/m³),mass concentration of particles derived from Lorenz-Mie calculation of OPC scattering (μg/m³),mass concentration of particles derived from Lorenz-Mie calculation of OPC scattering (μg/m³)
DateTimeUTC,F1_M11,P_M11,Q1_M11,Q2_M11,T1_M11,T2_M11,T3_M11,T4_M11,T5_M11,U1_M11,ZSPAN_M11,X2_M11,X0_M11,X1_M11
2023-08-01 08:00:00,SystemResetWarning,0836.6,5.01,000.00,033.0,028.7,000.0,040.9,032.4,34.6,0000.0,0004.97,0008.74,0004.35
2023-08-01 08:01:00,SystemResetWarning,0836.5,4.99,000.00,033.0,027.7,000.0,040.8,032.3,34.6,0000.0,0004.97,0008.94,0004.36
2023-08-01 08:02:00,SystemResetWarning,0836.5,5.00,000.00,032.9,026.2,000.0,040.6,032.1,34.6,0000.0,0004.99,0009.04,0004.37
2023-08-01 08:03:00,SystemResetWarning,0836.4,5.01,000.00,032.8,025.8,000.0,040.5,031.8,34.8,0000.0,0005.01,0008.98,0004.38
2023-08-01 08:04:00,SystemResetWarning,0836.2,5.00,000.00,032.6,026.0,000.0,040.6,031.6,35.3,0000.0,0005.02,0009.28,0004.39
2023-08-01 08:05:00,SystemResetWarning,0836.3,5.01,000.00,032.6,026.4,000.0,040.5,031.8,35.3,0000.0,0005.02,0009.27,0004.41
2023-08-01 08:06:00,SystemResetWarning,0836.2,5.00,000.00,032.8,026.7,000.0,040.5,032.0,35.0,0000.0,0004.98,0009.30,0004.40
2023-08-01 08:07:00,SystemResetWarning,0836.2,4.99,000.00,033.0,027.1,000.0,040.5,032.1,34.5,0000.0,0004.97,0009.31,0004.40
2023-08-01 08:08:00,SystemResetWarning,0836.2,4.99,000.00,033.1,027.4,000.0,040.5,032.1,34.3,0000.0,0004.95,0009.30,0004.39
2023-08-01 08:09:00,SystemResetWarning,0836.3,5.00,000.00,033.1,027.6,000.0,040.6,032.1,34.2,0000.0,0004.94,0009.28,0004.39
2023-08-01 08:10:00,SystemResetWarning,0836.3,5.01,000.00,033.1,027.8,000.0,040.6,032.1,34.2,0000.0,0004.96,0009.30,0004.40
2023-08-01 08:11:00,SystemResetWarning,0836.3,5.00,000.00,033.1,028.0,000.0,040.6,032.1,34.2,0000.0,0004.96,0008.98,0004.39
2023-08-01 08:12:00,SystemResetWarning,0836.3,5.00,000.00,033.0,028.1,000.0,040.7,032.1,34.3,0000.0,0004.95,0008.90,0004.38
2023-08-01 08:13:00,SystemResetWarning,0836.3,5.00,000.00,033.0,028.2,000.0,040.7,032.2,34.4,0000.0,0004.94,0008.62,0004.37
2023-08-01 08:14:00,SystemResetWarning,0836.2,5.00,000.00,033.0,028.4,000.0,040.7,032.2,34.4,0000.0,0004.96,0008.66,0004.38
2023-08-01 08:15:00,SystemResetWarning,0836.2,5.00,000.00,032.9,028.4,000.0,040.7,032.2,34.4,0000.0,0005.00,0008.55,0004.38
2023-08-01 08:16:00,SystemResetWarning,0836.2,5.00,000.00,032.9,028.5,000.0,040.8,032.2,34.4,0000.0,0005.01,0008.68,0004.38
2023-08-01 08:17:00,SystemResetWarning,0836.2,5.00,000.00,032.8,028.6,000.0,040.8,032.2,34.6,0000.0,0005.04,0009.04,0004.40
2023-08-01 08:18:00,SystemResetWarning,0836.2,5.00,000.00,032.8,028.7,000.0,040.8,032.2,34.6,0000.0,0005.09,0009.20,0004.42
2023-08-01 08:19:00,SystemResetWarning,0836.2,5.00,000.00,032.7,028.7,000.0,040.7,032.3,34.6,0000.0,0005.14,0009.91,0004.43
2023-08-01 08:20:00,SystemResetWarning,0836.2,4.98,000.00,032.7,028.0,000.0,040.7,032.2,34.7,0000.0,0005.15,0009.88,0004.45
2023-08-01 08:21:00,SystemResetWarning,0836.1,5.01,000.00,032.6,026.5,000.0,040.5,032.1,34.8,0000.0,0005.16,0009.91,0004.46
2023-08-01 08:22:00,SystemResetWarning,0836.1,5.00,000.00,032.5,025.9,000.0,040.4,031.9,35.1,0000.0,0005.16,0009.88,0004.48
2023-08-01 08:23:00,SystemResetWarning,0836.1,5.02,000.00,032.5,026.0,000.0,040.4,031.7,35.2,0000.0,0005.19,0009.95,0004.49
2023-08-01 08:24:00,SystemResetWarning,0836.1,5.00,000.00,032.6,026.3,000.0,040.4,031.8,35.0,0000.0,0005.25,0010.07,0004.50
2023-08-01 08:25:00,SystemResetWarning,0836.1,4.98,000.00,032.7,026.7,000.0,040.4,031.9,34.9,0000.0,0005.27,0010.12,0004.50
2023-08-01 08:26:00,SystemResetWarning,0836.1,5.00,000.00,032.7,027.0,000.0,040.4,031.9,34.9,0000.0,0005.27,0010.12,0004.50
2023-08-01 08:27:00,SystemResetWarning,0836.0,5.00,000.00,032.8,027.3,000.0,040.4,032.0,35.0,0000.0,0005.23,0009.91,0004.51
2023-08-01 08:28:00,SystemResetWarning,0836.0,5.04,000.00,032.8,027.6,000.0,040.4,032.0,34.9,0000.0,0005.22,0009.33,0004.49
2023-08-01 08:29:00,SystemResetWarning,0836.0,4.96,000.00,032.9,027.8,000.0,040.5,032.1,34.4,0000.0,0005.21,0009.29,0004.48
2023-08-01 08:30:00,SystemResetWarning,0835.9,5.01,000.00,033.0,027.9,000.0,040.5,032.1,34.1,0000.0,0005.20,0008.88,0004.48
2023-08-01 08:31:00,SystemResetWarning,0835.9,5.00,000.00,033.0,028.1,000.0,040.5,032.1,33.9,0000.0,0005.20,0008.99,0004.47
2023-08-01 08:32:00,SystemResetWarning,0835.9,4.99,000.00,033.0,028.2,000.0,040.6,032.1,33.8,0000.0,0005.16,0009.02,0004.46
2023-08-01 08:33:00,SystemResetWarning,0835.9,4.99,000.00,032.9,028.3,000.0,040.6,032.1,33.3,0000.0,0005.14,0009.05,0004.44
2023-08-01 08:34:00,SystemResetWarning,0835.8,5.00,000.00,032.9,028.4,000.0,040.6,032.2,32.9,0000.0,0005.11,0009.01,0004.43
2023-08-01 08:35:00,SystemResetWarning,0835.8,5.00,000.00,032.9,028.4,000.0,040.6,032.2,32.5,0000.0,0005.04,0008.90,0004.42
2023-08-01 08:36:00,SystemResetWarning,0835.8,5.00,000.00,032.8,028.5,000.0,040.7,032.2,31.6,0000.0,0005.03,0008.85,0004.42
2023-08-01 08:37:00,SystemResetWarning,0835.6,5.00,000.00,032.8,028.5,000.0,040.7,032.2,30.9,0000.0,0005.00,0009.10,0004.44
2023-08-01 08:38:00,SystemResetWarning,0835.6,5.00,000.00,032.7,028.5,000.0,040.7,032.2,30.6,0000.0,0005.02,0009.23,0004.45
2023-08-01 08:39:00,SystemResetWarning,0835.6,5.00,000.00,032.7,028.5,000.0,040.7,032.2,30.5,0000.0,0005.03,0009.62,0004.46
2023-08-01 08:40:00,SystemResetWarning,0835.5,5.00,000.00,032.6,028.6,000.0,040.6,032.2,30.8,0000.0,0005.07,0009.72,0004.48
2023-08-01 08:41:00,SystemResetWarning,0835.6,5.00,000.00,032.5,028.6,000.0,040.6,032.2,30.8,0000.0,0005.07,0009.62,0004.49
2023-08-01 08:42:00,SystemResetWarning,0835.5,5.00,000.00,032.5,028.6,000.0,040.6,032.2,30.5,0000.0,0005.09,0009.62,0004.50
2023-08-01 08:43:00,SystemResetWarning,0835.5,5.00,000.00,032.4,028.6,000.0,040.6,032.2,30.4,0000.0,0005.09,0009.61,0004.50
2023-08-01 08:44:00,SystemResetWarning,0835.5,5.00,000.00,032.4,028.6,000.0,040.6,032.2,30.4,0000.0,0005.12,0009.64,0004.50
2023-08-01 08:45:00,SystemResetWarning,0835.5,4.99,000.00,032.3,028.7,000.0,040.5,032.2,30.4,0000.0,0005.13,0009.65,0004.50
2023-08-01 08:46:00,SystemResetWarning,0835.4,4.99,000.00,032.3,028.1,000.0,040.4,032.1,29.8,0000.0,0005.15,0009.64,0004.50
2023-08-01 08:47:00,SystemResetWarning,0835.2,5.00,000.00,032.2,026.4,000.0,040.3,032.0,29.9,0000.0,0005.15,0009.62,0004.50
2023-08-01 08:48:00,SystemResetWarning,0835.3,5.00,000.00,032.1,025.6,000.0,040.1,031.7,30.1,0000.0,0005.12,0009.39,0004.47
2023-08-01 08:49:00,SystemResetWarning,0835.3,5.02,000.00,031.9,025.7,000.0,040.1,031.5,30.2,0000.0,0005.11,0009.40,0004.45
2023-08-01 08:50:00,SystemResetWarning,0835.2,5.00,000.00,031.7,026.0,000.0,040.1,031.4,30.2,0000.0,0005.09,0008.98,0004.43
2023-08-01 08:51:00,SystemResetWarning,0835.2,5.00,000.00,031.6,026.4,000.0,040.0,031.4,30.3,0000.0,0005.03,0008.78,0004.40
2023-08-01 08:52:00,SystemResetWarning,0835.2,5.00,000.00,031.5,026.7,000.0,040.0,031.4,30.9,0000.0,0005.01,0008.85,0004.36
2023-08-01 08:53:00,SystemResetWarning,0835.1,5.01,000.00,031.4,027.0,000.0,039.9,031.4,31.0,0000.0,0004.96,0008.75,0004.31
2023-08-01 08:54:00,SystemResetWarning,0835.2,4.99,000.00,031.3,027.2,000.0,039.9,031.5,31.2,0000.0,0004.95,0008.66,0004.27
2023-08-01 08:55:00,SystemResetWarning,0835.1,4.99,000.00,031.3,027.4,000.0,039.8,031.4,31.6,0000.0,0004.86,0008.58,0004.22
2023-08-01 08:56:00,SystemResetWarning,0835.0,5.00,000.00,031.2,027.5,000.0,039.8,031.4,31.5,0000.0,0004.74,0008.74,0004.12
2023-08-01 08:57:00,SystemResetWarning,0835.0,5.01,000.00,031.1,027.6,000.0,039.7,031.4,31.7,0000.0,0004.60,0008.54,0004.01
2023-08-01 08:58:00,SystemResetWarning,0835.0,5.01,000.00,031.1,027.7,000.0,039.7,031.4,31.7,0000.0,0004.46,0008.43,0003.89
2023-08-01 08:59:00,SystemResetWarning,0835.0,5.00,000.00,031.0,027.8,000.0,039.6,031.5,31.5,0000.0,0004.34,0008.21,0003.78
